SCP
0 0 0 0 0 0 0 0 0 0 0 0 0 0 0 0 0 0 0 0 0 0 0 0 0 0 0 0 0 0 0 0 0 0 0 0 0 0 0 0 0 0 0
0 0 0 0 0 0 0 0 0 0 0 0 0 0 0 0 0 0 0 0 0 0 0 0 0 0 0 0 0 0 0 0 0 0 0 0 0 0 0 0 0 0 0
0 0 0 0 0 0 0 0 0 0 0 0 0 0 0 0 0 0 0 0 0 0 0 0 0 0 0 0 0 0 0 0 0 0 0 0 0 0 0 0 0 0 0
0 0 0 0 0 0 0 0 0 0 0 0 0 0 0 0 0 0 0 0 0 0 0 0 0 0 0 0 0 0 0 0 0 0 0 0 0 0 0 0 0 0 0
0 0 0 0 0 0 0 0 0 0 0 0 0 0 0 0 0 0 0 0 0 0 0 0 0 0 0 0 0 0 0 0 0 0 1 1 1 0 0 0 1 1 1
0 0 0 0 0 0 0 0 0 0 0 0 0 0 0 0 0 0 0 0 0 0 0 0 0 0 0 0 0 0 0 0 0 0 1 1 1 1 1 1 1 1 1
0 0 0 0 0 0 0 0 0 0 0 0 0 0 0 0 0 0 0 0 0 0 0 0 0 0 0 0 0 0 0 0 0 0 0 1 1 1 1 1 1 1 1
0 0 0 0 0 0 0 0 0 0 0 0 0 0 0 0 0 0 0 0 0 0 0 0 0 0 0 0 0 0 0 0 0 0 0 0 1 1 1 1 1 1 1
0 0 0 0 0 0 0 0 0 0 0 0 0 0 0 0 0 0 0 0 0 0 0 0 0 0 0 0 0 0 0 0 0 0 0 0 0 1 1 1 1 1 1
0 0 0 0 0 0 0 0 0 0 0 0 0 0 0 0 0 0 0 0 0 0 0 0 0 0 0 0 0 0 0 0 0 0 0 0 0 0 1 1 1 1 1
0 0 0 0 0 0 0 0 0 0 0 0 0 0 0 0 0 0 0 0 0 0 0 0 0 0 0 0 0 0 0 0 0 0 0 0 0 0 0 1 1 1 1
0 0 0 0 0 0 0 0 0 0 0 0 0 0 0 0 0 0 0 0 0 0 0 0 0 0 0 0 0 0 0 0 0 0 0 0 1 1 1 1 1 1 1
0 0 0 0 0 0 0 0 0 0 0 0 0 0 0 0 0 0 0 0 0 0 0 0 0 0 0 0 0 0 0 0 0 0 0 1 1 1 1 1 1 1 2
0 0 0 0 0 0 0 0 0 0 0 0 0 0 0 0 0 0 0 0 0 0 0 0 0 0 0 0 0 0 0 0 0 0 0 0 1 1 1 1 1 1 2
0 0 0 0 0 0 0 0 0 0 0 0 0 0 0 0 0 0 0 0 1 0 0 0 0 0 0 0 0 0 0 0 0 0 0 0 0 0 1 1 1 1 1
0 0 0 0 0 0 0 0 0 0 0 0 0 0 0 0 0 0 0 0 0 0 0 0 0 0 0 0 0 0 0 0 0 0 0 0 0 0 0 0 0 0 0
0 0 0 0 0 0 0 0 0 0 0 0 0 0 0 0 0 0 0 0 0 0 0 0 0 0 0 0 0 0 0 0 0 0 0 0 0 0 0 0 0 0 0
0 0 0 0 0 0 0 0 0 0 0 0 0 0 0 0 0 0 0 0 0 0 0 0 0 0 0 0 0 0 0 0 0 0 0 0 0 0 0 0 0 0 0
0 0 0 0 0 0 0 0 0 0 0 0 0 0 0 0 0 0 0 0 0 0 0 0 0 0 0 0 0 0 0 0 0 0 0 0 0 0 0 0 0 0 0
0 0 0 0 0 0 0 0 0 0 0 0 0 0 0 0 0 0 0 0 0 0 0 0 0 0 0 0 0 0 0 0 0 0 0 0 0 0 0 0 0 0 0
0 0 0 0 0 0 0 0 0 0 0 0 0 0 0 0 0 0 0 0 0 0 0 0 0 0 0 0 0 0 0 0 0 0 0 0 0 0 0 0 0 0 0
0 0 0 0 0 0 0 0 0 0 0 0 0 0 0 0 0 0 0 0 0 0 0 0 0 0 0 0 0 0 0 0 0 -0 -0 -0 -0 0 0 0 0 0 0
0 0 0 0 0 0 0 0 0 0 0 0 0 0 0 0 0 0 0 0 0 0 0 0 0 0 0 0 0 0 0 0 0 -0 -0 -0 -0 0 0 0 0 0 0
0 0 0 0 0 0 0 0 0 0 0 0 0 0 0 0 0 0 0 0 0 0 0 0 0 0 0 0 0 0 0 -0 -0 -0 -0 -0 -0 0 0 0 0 0 0
0 0 0 0 0 0 0 0 0 0 0 0 0 0 0 0 0 0 0 0 0 0 0 0 0 0 0 0 0 0 0 -0 -0 -0 -0 0 0 0 0 0 0 0 0
0 0 0 0 0 0 0 0 0 0 0 0 0 0 0 0 0 0 0 0 0 0 0 0 0 0 0 -0 0 0 0 0 -0 -0 -0 -0 0 0 0 0 -0 0 0
Wind_Speed
4 4 4 4 4 4 5 6 7 8 8 8 8 9 10 9 9 8 7 16 21 23 25 26 27 28 28 28 28 27 26 25 26 26 25 25 25 26 27 27 26 26 26
5 5 5 5 6 6 7 8 8 8 9 8 10 10 11 10 11 10 8 11 19 23 24 26 27 29 30 30 29 28 28 28 28 28 27 27 27 27 27 28 28 28 28
6 6 6 7 8 7 8 7 8 7 9 9 11 11 11 11 11 11 10 9 11 17 23 26 28 29 30 31 31 29 29 29 30 30 30 30 30 30 30 30 29 29 29
7 6 7 9 8 5 6 7 7 7 9 9 10 10 10 10 12 11 10 10 9 9 15 24 26 28 29 31 33 33 31 30 30 31 32 32 32 32 33 32 32 31 31
7 7 8 9 7 5 5 6 7 7 9 10 10 10 9 10 12 12 12 13 12 12 10 15 23 25 27 29 33 35 33 32 32 32 32 33 34 35 35 35 34 33 33
6 6 6 7 6 5 6 5 8 8 9 11 11 11 11 11 11 11 13 12 12 13 12 12 12 13 22 28 31 34 34 34 34 34 33 34 34 36 36 36 36 35 35
4 4 4 5 5 5 7 7 5 8 9 7 7 9 10 11 12 11 11 11 12 12 12 13 11 9 11 22 28 31 32 33 33 33 34 35 36 36 36 37 36 36 36
8 7 6 5 5 5 6 6 6 7 8 6 5 8 7 8 9 9 9 9 11 9 10 12 11 11 11 9 15 24 28 31 33 33 34 35 36 37 36 37 36 36 36
10 10 9 8 8 7 6 7 7 8 9 8 7 7 8 10 9 7 7 8 10 9 9 10 11 12 12 11 12 15 22 27 30 32 32 32 33 34 36 37 37 35 35
10 11 10 9 7 6 6 7 7 6 8 8 8 7 9 11 10 11 6 6 7 8 9 9 10 11 12 11 13 16 21 24 28 30 31 32 32 33 34 34 35 35 34
7 9 10 9 8 7 7 7 7 7 5 6 7 8 9 8 8 11 13 11 8 7 8 9 10 10 12 13 12 16 23 26 29 29 30 31 31 32 33 31 32 33 33
6 8 10 9 8 8 8 8 8 7 7 7 7 7 7 8 9 10 13 15 14 11 9 8 9 9 11 11 13 17 21 24 26 28 30 31 30 30 31 30 30 30 32
8 10 11 10 9 9 9 8 7 7 7 8 8 7 7 7 8 9 12 13 15 12 11 10 9 9 9 9 11 14 16 20 22 26 29 30 29 28 27 29 31 30 29
6 8 9 9 10 10 10 10 8 8 9 8 9 7 7 8 8 8 10 12 16 14 12 13 8 7 6 6 8 14 12 17 20 26 29 29 28 26 26 26 29 30 29
7 8 7 8 9 10 11 11 8 11 11 10 8 8 9 8 8 8 8 9 12 14 16 17 12 10 6 7 9 9 8 13 19 24 26 27 25 25 25 24 26 27 28
7 7 8 9 9 10 11 11 10 12 12 10 10 12 12 10 10 8 7 8 9 10 14 18 14 12 10 10 12 12 12 15 18 24 26 25 24 26 27 25 23 22 24
7 7 9 9 10 11 12 12 12 12 13 12 12 13 15 14 9 7 7 7 8 9 11 16 13 14 18 15 13 11 11 11 12 20 23 25 23 23 24 24 23 22 22
7 7 8 9 10 11 11 12 12 12 13 13 13 13 13 13 10 8 8 10 9 8 8 13 16 13 14 15 16 15 13 10 12 17 22 23 21 20 21 22 23 22 24
8 9 9 10 11 11 12 12 11 13 13 12 11 12 13 14 11 10 11 11 9 7 8 11 15 13 12 12 13 13 13 12 12 13 16 16 19 21 20 19 19 20 20
8 9 10 10 11 12 12 13 14 15 13 12 11 11 12 12 14 14 13 12 11 10 11 11 12 12 13 12 10 12 14 12 11 9 10 12 15 17 18 17 18 18 19
8 10 11 11 11 11 12 17 16 15 15 15 13 12 12 17 23 20 17 15 14 12 13 12 12 13 12 12 13 13 15 13 11 7 8 9 8 7 8 11 13 17 19
9 10 10 11 12 11 20 25 22 15 14 14 14 13 14 16 18 23 26 27 25 21 18 16 14 15 16 16 15 12 13 12 13 5 5 7 6 7 7 8 14 19 22
9 10 10 11 12 13 22 26 27 15 13 13 14 14 13 12 16 14 20 25 24 27 27 22 18 18 17 17 15 14 13 14 14 10 10 12 9 9 9 10 18 22 23
8 10 10 11 12 14 23 26 26 15 13 14 14 14 13 13 15 20 18 17 16 17 20 19 17 16 16 15 14 15 15 16 15 11 11 13 9 7 4 6 15 23 22
9 10 10 12 13 14 22 25 22 12 13 14 14 13 14 15 22 30 21 18 19 16 18 26 29 27 27 27 22 14 11 12 12 10 10 10 9 4 2 4 7 12 12
9 11 12 11 13 14 19 24 24 12 13 13 12 11 18 22 29 31 24 19 17 18 18 17 18 18 17 19 21 14 10 10 10 10 5 4 1 1 2 2 5 4 9
Wind_Direction
240 234 236 233 230 227 234 243 247 251 252 255 253 249 250 248 247 248 250 252 256 260 262 263 261 259 259 256 248 243 244 244 243 242 241 240 240 240 240 238 238 238 238
241 243 248 246 241 235 238 241 244 248 253 252 253 246 246 245 245 242 244 247 250 254 256 258 257 255 256 258 254 246 240 238 239 240 240 240 240 240 240 240 238 239 240
236 243 249 252 250 239 239 245 250 249 258 254 255 254 249 247 247 244 241 242 245 247 249 253 254 254 254 255 257 256 251 244 241 240 239 238 237 236 237 238 238 237 238
233 240 252 260 259 243 239 246 250 252 256 255 257 255 250 250 250 247 244 244 241 240 244 249 251 251 251 251 253 254 254 252 247 243 241 240 240 239 238 237 236 236 236
239 241 255 266 267 250 242 246 252 248 266 266 260 261 254 247 249 247 244 240 238 236 234 241 242 243 245 247 251 253 252 251 250 248 245 243 241 240 240 240 239 238 236
252 242 255 266 270 263 262 251 256 260 262 272 277 273 263 253 248 245 247 244 242 238 236 241 244 243 243 245 249 253 252 251 250 249 249 248 246 243 242 241 241 240 239
305 279 277 284 287 280 285 286 275 273 276 271 275 276 264 254 247 245 243 243 243 240 234 238 240 239 241 242 244 249 252 253 253 252 251 249 248 246 244 243 242 243 242
28 26 11 353 338 323 315 309 300 291 286 277 266 287 284 272 246 241 245 245 247 248 243 243 245 243 243 246 247 248 248 252 254 254 252 250 248 246 244 243 242 242 242
32 27 21 15 8 4 351 341 328 308 301 295 272 272 288 294 302 261 233 235 241 242 242 243 244 243 244 246 250 252 249 250 254 256 255 253 250 248 245 244 243 242 242
23 21 13 7 1 355 351 343 340 331 324 320 316 285 276 292 301 302 282 267 249 248 247 246 246 244 244 245 245 244 246 246 251 256 258 256 253 250 248 246 245 245 244
13 15 8 0 355 349 338 331 330 330 322 318 315 316 315 307 301 302 305 308 298 276 259 250 247 245 244 244 244 245 244 245 251 255 259 257 254 251 248 245 242 243 244
5 8 1 356 349 343 337 332 324 320 316 313 311 312 311 314 313 309 308 308 301 294 286 276 265 253 248 249 249 248 246 244 247 253 256 257 256 254 250 246 243 241 241
1 359 356 352 347 340 335 331 323 313 310 307 306 306 306 304 305 304 303 301 297 299 290 276 266 257 245 237 244 252 255 256 254 255 259 264 264 259 254 251 249 246 243
347 348 345 344 341 338 336 334 327 320 317 310 305 304 307 306 301 297 294 295 299 298 295 292 286 275 270 269 256 245 250 258 256 255 258 259 258 259 263 260 254 251 247
347 342 336 336 338 339 338 335 330 329 325 319 318 318 310 306 301 293 289 294 299 304 303 299 298 294 289 291 286 281 271 263 262 262 260 257 254 249 255 263 261 254 249
338 336 339 340 340 340 339 336 331 330 328 333 331 325 309 303 300 292 297 301 302 299 294 295 305 306 302 292 281 278 275 274 267 265 266 263 253 251 252 250 252 256 255
329 334 338 338 339 338 337 334 330 332 331 328 324 316 309 306 305 313 307 311 306 300 300 302 312 313 307 308 309 302 293 286 279 271 266 266 261 257 258 254 251 249 246
330 335 336 335 335 333 330 327 323 329 323 324 323 319 320 320 317 314 315 306 298 299 301 299 302 303 304 310 307 300 297 291 284 277 273 272 273 267 259 255 252 249 245
333 334 336 334 332 329 326 323 325 325 323 322 324 326 322 316 313 314 309 300 295 297 296 289 290 297 302 305 302 305 303 294 282 281 277 273 274 272 267 262 257 253 243
326 330 333 331 329 327 324 328 329 327 325 321 320 316 313 315 313 313 308 305 304 303 297 290 293 298 296 297 299 298 295 292 287 284 285 286 277 271 273 273 265 258 242
331 329 328 327 325 323 326 329 327 324 322 320 317 314 311 311 312 314 315 310 308 304 301 300 299 299 297 299 292 288 282 283 277 284 286 280 270 272 270 271 269 266 255
328 327 321 321 322 321 324 327 326 322 319 315 312 309 305 305 308 313 312 311 311 308 303 299 298 295 294 290 283 286 292 293 293 277 267 283 286 279 277 270 267 263 262
326 319 319 318 313 314 320 325 325 322 314 309 305 303 301 304 306 298 302 307 307 304 302 298 290 284 284 282 288 291 292 295 291 287 283 276 267 263 268 269 269 269 265
315 314 314 309 306 310 319 324 324 320 309 303 299 298 301 304 299 307 313 314 306 301 302 299 293 284 279 289 297 299 300 290 280 276 261 265 267 258 268 274 272 272 259
313 311 309 305 304 309 318 322 322 314 306 303 300 302 304 302 307 318 324 314 310 308 308 308 307 309 311 310 306 300 295 291 294 297 291 275 271 259 260 282 291 266 186
306 305 302 301 303 306 310 319 323 316 306 304 303 301 303 307 316 325 327 321 317 311 311 311 308 306 304 299 299 292 280 283 295 293 286 288 268 195 274 323 335 0 119